[Date Prev][Date Next][Thread Prev][Thread Next] - [Date Index][Thread Index][Author Index]
2 Line ISS Keps 12-5
- Subject: [sarex] 2 Line ISS Keps 12-5
- From: "Dave Larsen Ph.D." <doc@xxxxxxxxxxx>
- Date: Thu, 5 Dec 2002 04:31:46 -0800
ISS
1 25544U 98067A 02339.19813115 .00029831 00000-0 41218-3 0 4421
2 25544 51.6370 274.3662 0003077 233.6084 264.5560 15.56890225230643
----
Via the sarex mailing list at AMSAT.ORG courtesy of AMSAT-NA.
To unsubscribe, send "unsubscribe sarex" to Majordomo@amsat.org
AMSAT Home